Wind_Speed
7 10 7 8 8 10 9 13 14 16 17 12 17 19 16 16 12 10 16 11 11 10 8 9 8 9 5 2 1 2 4 5 5 5 5 5 5 5 5 5 5 4 4
10 10 10 10 10 12 12 13 15 17 18 18 19 16 12 11 9 8 10 11 13 12 11 9 11 10 10 8 5 4 4 5 6 6 6 5 5 7 7 6 6 6 5
10 10 10 12 12 13 12 14 14 17 15 13 15 15 12 10 7 6 6 9 10 13 13 13 12 12 12 12 11 9 7 6 7 8 8 7 7 7 8 7 8 8 8
12 12 11 15 14 15 15 16 16 9 22 18 15 13 11 8 4 4 7 6 10 9 13 15 15 14 13 14 13 12 12 10 8 8 8 10 10 10 9 9 9 9 9
13 13 12 15 14 16 18 18 18 16 24 19 15 13 10 7 2 7 5 4 6 7 9 12 16 17 16 16 17 16 16 15 12 10 9 11 12 12 13 13 12 12 11
13 14 15 16 16 17 16 13 16 21 22 21 10 11 9 7 4 3 4 3 6 8 10 12 8 18 21 20 19 19 19 18 19 19 18 16 15 15 15 15 15 15 14
14 15 16 17 15 16 16 19 20 20 17 17 10 6 10 9 8 1 4 4 6 9 11 10 13 12 14 20 23 21 22 21 20 21 23 23 20 18 18 18 17 17 17
14 13 13 14 12 13 14 14 14 15 14 13 7 5 2 10 10 7 9 5 7 8 10 12 13 12 17 17 16 23 24 24 24 24 26 26 23 22 21 21 21 20 20
9 9 7 5 4 7 10 10 11 10 10 13 6 4 3 3 6 14 14 8 7 10 10 12 13 12 15 18 19 17 20 23 24 28 30 29 29 29 25 25 23 24 23
5 3 3 1 3 6 10 13 14 13 10 9 13 7 7 9 11 2 10 21 18 10 6 9 14 12 13 18 17 17 19 19 20 21 22 27 31 32 32 32 30 28 28
7 5 3 1 4 7 9 12 13 13 11 9 9 9 8 7 7 9 6 7 9 16 19 13 12 14 13 14 19 13 18 20 21 23 23 24 25 28 32 34 35 35 34
8 4 1 3 6 9 11 11 11 12 13 12 10 10 8 5 4 6 8 9 10 13 16 21 18 16 15 16 17 19 20 20 22 24 25 27 27 28 30 32 33 35 40
9 7 6 6 9 12 14 15 13 10 11 11 10 12 10 9 9 9 8 7 8 8 16 20 20 28 24 20 22 20 20 23 24 26 26 27 29 30 31 32 33 35 36
14 11 8 8 10 12 15 19 21 16 12 12 12 10 11 13 11 10 9 11 12 10 10 15 18 22 23 24 22 22 25 25 23 27 27 28 29 30 32 32 33 34 35
16 13 11 13 16 17 17 18 22 22 17 13 13 11 10 11 11 10 10 12 14 14 11 10 17 18 26 20 28 23 22 24 24 27 30 29 29 31 32 34 35 34 34
18 24 19 22 27 25 33 32 24 26 21 17 14 13 12 11 12 13 13 11 11 13 16 13 16 20 26 26 26 30 26 25 26 26 28 31 32 32 34 35 37 38 37
25 29 26 29 29 29 27 40 29 23 27 21 16 16 13 12 14 15 13 12 17 15 17 17 21 24 28 29 32 33 32 33 30 28 30 28 29 34 35 36 36 38 40
35 32 32 36 36 37 43 41 29 27 28 26 19 18 17 16 15 14 13 19 22 24 26 28 28 24 25 25 30 31 32 30 29 27 27 30 30 32 34 35 36 36 39
40 40 43 40 46 46 48 49 45 32 31 26 21 18 18 17 15 13 14 18 22 25 26 28 27 25 22 24 27 33 30 30 29 29 26 31 35 29 28 33 35 38 39
39 41 44 46 49 49 51 53 51 33 31 27 23 22 20 22 24 22 20 22 25 26 28 27 30 33 30 24 25 36 33 27 32 31 28 32 30 34 31 31 35 35 37
35 38 42 41 43 48 50 50 47 36 35 27 25 25 23 24 26 27 28 30 25 26 29 31 33 33 32 27 31 36 34 34 33 25 37 33 32 34 37 39 38 37 36
35 36 39 38 39 36 39 36 43 35 34 31 29 29 27 26 29 32 32 34 35 30 28 32 33 33 33 34 32 34 37 40 40 38 39 39 39 38 39 41 38 36 38
28 26 27 30 35 38 36 35 34 31 36 35 31 29 28 25 27 30 37 43 45 32 29 33 34 34 35 35 37 38 38 38 37 37 40 41 39 41 37 37 36 40 41
16 19 25 32 34 31 37 35 30 32 34 34 31 32 30 26 30 35 40 37 41 40 34 34 36 36 35 38 38 35 33 33 34 34 36 36 36 38 37 40 44 44 49
20 27 30 38 30 29 32 29 28 31 33 34 33 32 29 32 33 38 44 36 33 33 31 35 36 33 35 34 29 31 32 33 33 35 30 33 34 38 42 45 46 43 55
24 30 30 31 27 28 28 26 25 30 31 33 30 28 29 33 37 36 35 32 36 34 34 33 34 36 34 27 27 31 33 33 36 37 30 34 38 39 42 42 48 54 61
Wind_Direction
263 249 293 293 296 287 298 304 310 314 324 334 298 303 301 301 298 274 269 265 256 250 240 236 238 232 222 196 340 247 222 230 227 221 217 232 242 236 237 240 222 222 236
261 270 282 290 294 296 308 315 316 313 312 309 298 313 319 307 302 279 251 268 253 254 246 236 236 238 228 222 234 291 249 241 250 242 239 238 245 252 242 240 245 238 230
276 279 283 293 300 306 309 311 316 326 312 315 313 323 331 316 310 284 261 246 253 242 249 246 242 242 240 236 230 229 264 246 244 254 257 252 246 250 259 253 247 248 241
270 278 286 299 299 300 303 300 305 299 298 306 316 321 322 317 326 289 254 257 244 243 240 244 242 243 245 243 239 235 245 258 260 258 266 266 266 263 260 261 257 253 251
270 277 280 281 291 293 296 300 295 297 305 309 314 310 313 309 321 280 277 237 249 234 237 245 243 247 246 246 246 244 244 248 253 261 272 278 273 267 263 258 258 256 253
277 281 286 291 291 297 293 287 297 296 297 298 309 303 300 297 323 281 333 295 253 258 221 267 255 242 245 244 242 247 249 250 252 254 266 274 282 276 269 262 256 254 253
273 274 279 286 284 294 285 291 293 296 297 294 324 340 311 318 312 249 245 263 276 260 268 260 246 260 256 249 246 248 248 251 254 252 256 263 261 270 273 269 264 257 252
267 265 273 278 284 279 299 293 294 294 298 301 302 327 46 317 334 271 304 270 266 272 267 263 263 257 264 258 255 251 252 252 252 252 253 259 263 259 265 267 265 263 259
241 247 251 271 313 314 330 335 324 313 308 304 314 280 141 236 292 303 322 299 277 272 270 271 270 264 261 267 270 268 263 262 262 258 256 255 258 260 261 259 261 263 262
204 164 118 74 356 351 348 353 349 338 331 319 319 292 254 254 235 249 328 319 325 308 285 286 291 277 269 273 264 266 268 269 269 269 266 261 260 260 259 259 259 259 261
156 152 140 73 4 358 359 355 352 346 342 324 317 297 299 282 265 248 225 282 313 316 314 300 283 287 283 278 287 270 270 271 271 271 268 265 263 260 259 258 259 260 259
182 193 291 337 342 344 341 342 343 345 341 332 320 309 290 253 249 269 259 271 273 304 308 310 311 291 283 284 280 284 283 276 271 269 268 270 268 266 263 261 258 256 258
215 234 255 294 319 330 328 327 331 331 331 325 318 314 308 289 283 282 282 287 281 269 293 309 320 311 309 293 288 292 283 280 280 274 271 267 265 265 264 263 262 261 258
228 249 259 287 307 318 320 323 320 318 315 314 317 314 308 309 307 294 289 269 281 260 252 298 307 312 310 308 296 296 295 295 289 284 279 275 271 268 267 265 263 262 261
245 257 261 276 291 299 307 314 311 309 306 302 302 308 307 303 305 297 283 281 298 306 304 276 278 304 289 306 304 311 300 294 292 289 287 281 274 272 270 268 266 264 262
255 270 265 275 287 299 317 303 297 301 303 296 294 298 300 304 308 312 311 301 303 295 291 296 291 281 277 285 294 308 311 307 293 287 281 279 281 277 273 270 269 268 265
257 262 271 277 284 286 305 318 277 289 298 294 289 292 294 296 310 307 295 281 279 297 302 304 295 287 293 296 294 300 308 309 305 294 285 283 279 276 275 274 271 271 270
259 263 267 277 279 289 307 320 287 285 286 290 289 289 289 296 309 308 304 316 323 316 310 310 308 300 293 298 295 303 301 301 304 297 294 289 282 275 273 272 270 268 267
261 262 269 278 283 280 287 299 313 277 270 280 282 280 281 291 295 305 305 309 314 315 309 306 309 314 289 298 289 299 306 297 300 297 307 302 294 285 274 268 270 270 268
271 272 276 280 286 284 287 285 295 289 264 268 278 271 275 286 291 293 299 304 305 310 316 311 314 313 310 313 311 299 305 292 286 295 276 287 290 293 286 286 268 266 265
274 276 279 284 288 286 288 285 291 291 260 265 267 265 266 274 287 294 300 303 293 294 301 302 307 308 308 298 294 296 294 295 295 282 291 294 282 282 286 289 286 278 274
267 271 277 284 285 286 280 282 285 286 256 261 261 265 269 280 290 299 300 301 294 291 297 301 305 305 306 302 300 300 297 294 293 292 294 291 291 287 287 286 284 283 285
274 279 283 285 287 287 279 277 274 275 255 256 261 268 276 288 293 294 299 297 298 292 302 303 304 306 304 303 301 297 294 291 290 291 291 290 290 287 288 290 287 291 291
277 277 285 289 283 271 273 273 270 262 252 258 264 273 279 278 284 295 298 302 295 297 303 306 306 307 305 303 303 302 300 297 294 294 298 299 297 297 298 292 296 293 293
288 292 297 295 282 277 273 273 271 256 251 259 266 271 274 280 295 301 296 304 302 309 301 302 302 304 305 304 303 303 302 300 303 303 303 296 299 304 303 301 298 296 304
293 290 287 281 279 276 276 272 266 249 254 264 265 271 283 297 304 300 301 300 298 302 300 300 303 304 303 296 299 304 308 312 311 306 313 305 306 308 307 306 308 311 303
Height
3216 3217 3216 3217 3215 3216 3215 3214 3213 3212 3210 3210 3207 3204 3203 3202 3201 3201 3200 3201 3202 3202 3203 3204 3205 3206 3206 3207 3207 3208 3208 3209 3210 3211 3211 3212 3213 3213 3213 3214 3214 3215 3216
3214 3215 3215 3215 3215 3214 3213 3213 3211 3210 3208 3206 3204 3201 3200 3199 3198 3197 3197 3197 3200 3201 3202 3203 3203 3204 3205 3206 3206 3207 3207 3208 3209 3210 3210 3211 3212 3213 3213 3213 3214 3214 3215
3214 3214 3214 3214 3213 3212 3212 3210 3209 3208 3207 3207 3203 3200 3199 3197 3196 3196 3195 3196 3196 3198 3200 3202 3203 3203 3203 3204 3205 3206 3207 3207 3207 3208 3209 3210 3210 3211 3212 3212 3212 3213 3214
3211 3211 3212 3213 3211 3210 3209 3208 3207 3207 3205 3203 3201 3199 3198 3197 3196 3195 3194 3195 3195 3196 3197 3198 3199 3200 3201 3202 3203 3203 3205 3205 3207 3207 3207 3208 3209 3210 3211 3212 3212 3212 3213
3209 3210 3210 3210 3210 3208 3207 3206 3205 3204 3203 3201 3200 3198 3197 3196 3195 3196 3194 3194 3193 3195 3195 3195 3196 3198 3199 3200 3200 3202 3202 3203 3204 3205 3205 3206 3207 3208 3209 3210 3211 3211 3211
3207 3208 3207 3207 3206 3205 3205 3204 3202 3202 3200 3198 3198 3196 3195 3194 3193 3194 3195 3194 3193 3193 3194 3193 3194 3194 3195 3196 3197 3198 3199 3200 3201 3201 3203 3204 3205 3206 3207 3207 3208 3209 3210
3206 3206 3205 3204 3204 3203 3202 3201 3200 3198 3197 3195 3195 3197 3194 3193 3192 3192 3192 3192 3191 3192 3191 3192 3192 3191 3191 3193 3194 3195 3196 3196 3198 3198 3199 3200 3201 3202 3203 3205 3206 3206 3208
3204 3204 3204 3204 3203 3203 3201 3200 3199 3197 3195 3192 3192 3193 3198 3196 3196 3194 3190 3190 3190 3190 3190 3189 3189 3191 3189 3188 3191 3191 3192 3193 3194 3195 3195 3196 3197 3198 3199 3201 3202 3203 3204
3203 3203 3203 3203 3203 3202 3200 3199 3197 3195 3194 3192 3192 3193 3195 3197 3193 3192 3189 3188 3188 3187 3187 3187 3187 3188 3187 3186 3187 3188 3188 3188 3189 3190 3191 3192 3193 3194 3194 3196 3197 3199 3200
3201 3202 3202 3202 3202 3201 3199 3197 3195 3193 3192 3191 3190 3189 3190 3191 3191 3195 3191 3186 3186 3185 3185 3184 3183 3184 3184 3182 3183 3184 3184 3185 3185 3185 3186 3187 3189 3189 3190 3191 3192 3193 3195
3201 3202 3201 3201 3200 3199 3197 3195 3193 3192 3190 3189 3188 3187 3186 3186 3187 3188 3190 3192 3189 3185 3181 3181 3180 3181 3181 3180 3178 3181 3180 3180 3181 3180 3180 3180 3181 3182 3183 3184 3186 3187 3188
3200 3200 3200 3200 3199 3197 3195 3193 3191 3190 3189 3188 3187 3186 3185 3185 3186 3186 3185 3185 3186 3185 3183 3179 3177 3175 3176 3176 3175 3175 3174 3174 3175 3174 3174 3175 3175 3175 3176 3176 3177 3179 3180
3198 3197 3197 3197 3196 3196 3194 3192 3190 3188 3187 3186 3185 3184 3182 3181 3181 3181 3181 3182 3183 3183 3181 3179 3176 3172 3171 3170 3169 3169 3169 3168 3168 3167 3167 3167 3167 3167 3168 3169 3169 3171 3172
3193 3193 3193 3193 3193 3192 3191 3191 3189 3187 3186 3184 3183 3182 3181 3179 3178 3178 3178 3177 3176 3177 3177 3176 3173 3172 3168 3166 3164 3163 3162 3161 3162 3160 3159 3159 3159 3160 3160 3160 3160 3162 3163
3190 3190 3191 3191 3189 3188 3187 3187 3187 3186 3184 3182 3180 3179 3178 3177 3176 3175 3175 3173 3172 3172 3173 3174 3173 3169 3165 3162 3158 3158 3157 3156 3157 3154 3152 3150 3150 3150 3151 3151 3152 3152 3153
3187 3185 3186 3186 3185 3185 3185 3184 3182 3181 3180 3178 3176 3175 3174 3174 3173 3172 3170 3169 3170 3168 3168 3168 3167 3166 3161 3157 3154 3150 3149 3149 3148 3147 3146 3144 3143 3142 3142 3142 3142 3143 3144
3182 3180 3182 3181 3181 3180 3179 3176 3175 3174 3174 3174 3172 3171 3171 3171 3170 3169 3168 3167 3165 3164 3162 3163 3161 3158 3154 3152 3149 3146 3143 3140 3138 3138 3137 3138 3136 3134 3133 3133 3133 3133 3133
3176 3178 3177 3176 3174 3172 3171 3171 3172 3171 3170 3170 3168 3167 3167 3166 3165 3165 3164 3163 3161 3160 3157 3156 3155 3153 3150 3147 3143 3140 3138 3134 3132 3130 3129 3128 3127 3126 3125 3124 3124 3123 3123
3170 3172 3171 3172 3169 3167 3165 3165 3166 3164 3164 3163 3162 3162 3162 3162 3161 3159 3158 3158 3157 3154 3152 3149 3146 3144 3142 3140 3138 3134 3130 3127 3126 3124 3122 3119 3116 3116 3116 3115 3115 3114 3113
3164 3165 3166 3166 3165 3163 3160 3158 3158 3157 3157 3156 3156 3157 3157 3157 3156 3154 3153 3152 3151 3148 3146 3142 3139 3136 3135 3134 3130 3127 3123 3122 3119 3117 3117 3114 3111 3106 3105 3104 3103 3102 3102
3159 3159 3159 3160 3160 3157 3155 3153 3152 3149 3150 3150 3150 3150 3150 3151 3152 3151 3148 3147 3144 3143 3141 3138 3134 3131 3129 3126 3123 3120 3116 3113 3110 3109 3105 3103 3101 3099 3096 3093 3090 3089 3088
3151 3152 3151 3153 3152 3149 3146 3144 3143 3142 3142 3143 3142 3143 3145 3146 3145 3145 3144 3141 3138 3134 3132 3130 3127 3123 3120 3117 3114 3110 3107 3104 3099 3099 3094 3092 3091 3087 3085 3082 3080 3078 3077
3144 3144 3144 3144 3141 3139 3138 3136 3136 3134 3134 3135 3136 3138 3140 3140 3139 3136 3135 3133 3131 3127 3123 3121 3118 3116 3112 3109 3104 3101 3098 3093 3090 3088 3083 3080 3079 3074 3073 3070 3067 3065 3062
3137 3137 3134 3132 3130 3129 3130 3128 3127 3126 3127 3128 3130 3131 3132 3132 3130 3129 3126 3123 3120 3119 3116 3111 3109 3107 3104 3099 3094 3089 3086 3083 3081 3078 3073 3068 3065 3061 3059 3057 3054 3051 3046
3130 3129 3126 3124 3121 3120 3120 3120 3119 3118 3120 3123 3125 3125 3124 3125 3124 3122 3118 3114 3112 3110 3107 3103 3101 3099 3096 3090 3086 3081 3078 3074 3069 3066 3066 3059 3054 3050 3046 3043 3039 3037 3028
3121 3119 3116 3116 3114 3114 3113 3113 3112 3113 3114 3116 3117 3117 3117 3117 3115 3112 3110 3107 3105 3102 3098 3097 3092 3088 3086 3083 3080 3075 3069 3064 3060 3056 3056 3049 3045 3041 3031 3031 3024 3017 3006